053  
ASUS44 KJAN 191810  
RWRMS  
 
MISSISSIPPI HOURLY WEATHER ROUNDUP  
NATIONAL WEATHER SERVICE JACKSON MS  
100 PM CDT FRI APR 19 2024  
 
NOTE: "FAIR: INDICATES FEW OR NO CLOUDS BELOW 12,000 FEET WITH NO  
SIGNIFICANT WEATHER AND/OR S TO VISIBILITY
.  
 
MSZ001>002-007>008-010>013-018>021-025>028-034>036-191900-  
NORTHWEST MISSISSIPPI  
 
CITY SKY/WX TMP DP RH WIND PRES REMARKS
 
CLARKSDALE N/A 63 N/A N/A N15 30.13R  
GREENWOOD CLOUDY 70 64 81 N7 30.07F  
6HR MIN TEMP: 67; 6HR MAX TEMP: 74;  
 
GREENVILLE CLOUDY 66 61 84 N12 30.09S  
6HR MIN TEMP: 66; 6HR MAX TEMP: 73; 6HR PCP: TRACE;  
 
OLIVE BRANCH CLOUDY 59 55 88 N14 30.11F  
OXFORD CLOUDY 63 57 82 NE10 30.11F  
TUNICA CLOUDY 61 57 87 N14 30.13S  

 
 
MSZ003>006-009-014>017-022>024-029>033-037>039-191900-  
NORTHEAST MISSISSIPPI  
 
CITY SKY/WX TMP DP RH WIND PRES REMARKS
 
ABERDEEN CLOUDY 73 70 88 NW3 30.06F  
COLUMBUS AFB CLOUDY 77 68 73 NW5 30.01F  
CORINTH CLOUDY 63 59 88 N8 30.10R  
GOLDN TRIANGLE CLOUDY 79 71 76 N6 30.05F  
IUKA N/A 65 65 100 VRB7 30.08S  
LOUISVILLE CLOUDY 75 70 83 CALM 30.09S  
STARKVILLE CLOUDY 75 72 88 CALM 30.03F  
TUPELO CLOUDY 70 64 81 N12 30.06S  
6HR MIN TEMP: 69; 6HR MAX TEMP: 75;  
 

 
 
MSZ040-058-191900-  
CENTRAL MISSISSIPPI  
 
CITY SKY/WX TMP DP RH WIND PRES REMARKS
 
JACKSON INTL PTSUNNY 81 68 64 SW3 30.06F  
6HR MIN TEMP: 71; 6HR MAX TEMP: 81; 6HR PCP: TRACE;  
 
JACKSON HAWKNS MOSUNNY 73 67 81 VRB3 30.06F  
6HR MIN TEMP: 68; 6HR MAX TEMP: 73;  
 
MADISON PTSUNNY 79 75 89 SW6 30.06S  
MERIDIAN KEY MOSUNNY 81 65 58 W5 30.05F  
6HR MIN TEMP: 67; 6HR MAX TEMP: 83;  
 
MERIDIAN NAS PTSUNNY 81 67 62 VRB3 30.06F  
6HR MIN TEMP: 68; 6HR MAX TEMP: 81;  
 
RAYMOND MOSUNNY N/A N/A N/A W6 30.05F  
VICKSBURG VKS SUNNY 81 68 65 CALM 30.04F  

 
 
MSZ059>079-191900-  
SOUTH MISSISSIPPI  
 
CITY SKY/WX TMP DP RH WIND PRES REMARKS
 
BROOKHAVEN MOSUNNY N/A N/A N/A CALM 30.06F  
HATTIESBURG NOT AVBL  
LAUREL PTSUNNY 81 64 56 S3 30.06F  
MCCOMB NOT AVBL  
NATCHEZ MOSUNNY 82 66 58 VRB3 30.05F  
6HR MIN TEMP: 69; 6HR MAX TEMP: 83;  
 
PINE BELT MOSUNNY 84 67 56 W5 30.07F  
6HR MIN TEMP: 68; 6HR MAX TEMP: 85;  
 

 
 
MSZ080>082-191900-  
COASTAL MISSISSIPPI  
 
CITY SKY/WX TMP DP RH WIND PRES REMARKS
 
BILOXI NOT AVBL  
GULFPORT NOT AVBL  
PASCAGOULA NOT AVBL  

 
 
LAZ007>009-015>016-023>026-191900-  
NORTHEAST LOUISIANA  
 
CITY SKY/WX TMP DP RH WIND PRES REMARKS
 
BASTROP CLOUDY 65 65 97 CALM 30.09S FOG  
TALLULAH/VBURG PTSUNNY 82 69 64 CALM 30.06F  
6HR MIN TEMP: 71; 6HR MAX TEMP: 82; 6HR PCP: TRACE;  
 
VIDALIA MOSUNNY 83 68 59 S5 30.07F  

 
 
 
CLICK HERE TO GO TO PREVIOUS BULLETINS.

The Nexlab MS Page Main Text Page